Location: Zagreb
(45.8000°N, 16.0000°E)
Time: 01:06:20
(UTC+01:00)

NO-84 - Pass Details

Date: 08 November 2020
Orbit: 323 x 458 km, 55.0° (Epoch: 25 November)

Event Time Altitude Azimuth Distance (km) Brightness Sun altitude
Exits shadow 05:24:33 29° 307° (NW) 756 ? -14.5°
Maximum altitude 05:26:03 87° 36° (NE) 389 ? -14.2°
Drops below altitude 10° 05:29:06 10° 126° (SE) 1,364 ? -13.7°
Sets 05:31:03 0° 126° (SE) 2,183 ? -13.4°
